Find Starlink 37981

NORAD ID: 100282 Int'l Des: 2026-183 Owner: SPXS Country: US Constellation: starlink operational

当前视图

正在加载3D地球...

About Starlink 37981

Starlink 37981 (NORAD 100282) is a starlink constellation satellite launched Aug 11, 2026 by SPXS of US. with a mass of 575.00 kg.

即将过境

Passes for default location (London). Set your location on the main map for personalized predictions.

高度历史

Loading altitude history...

两行轨道根数

1 A0282U 26183L 26248.23782676 .00067769 00000-0 44266-3 0 9995
2 A0282 53.1610 332.8333 0001237 80.0640 280.0520 15.75242046 3901
Epoch: Sep 5, 2026 • Age: 9 hours

当前状态

高度 347.4 km
远地点 / 近地点 N/A
速度 7.71 km/s
星下点 43.58°N, 164.89°E
发射日期 Aug 11, 2026
运行时间 24 days
类型 internet

技术详情

分类 Payload
质量 575.00 kg
干质量 530.00 kg
总质量 575.00 kg
长度 0.30 m
直径 4.10 m
跨度 29.00 m
形状 Box + pan
制造商 SPXS
平台类型 Starlink V2MO
阶段状态 In Orbit
所有者/国家 SPXS/US

Most Searched